Columbia, MO

10:02 AM CDT on July 20, 2017 (GMT -0500)
Columbia Regional

Weather History for KCOU - November, 2013

Change the Weather History Date:

Saturday, November 2, 2013

  Actual Average Record
Temperature  
Mean Temperature 45 °F 51 °F  
Max Temperature 54 °F 61 °F 82 °F (2016)
Min Temperature 35 °F 40 °F 15 °F (1951)
Degree Days  
Heating Degree Days 20 15  
Month to date heating degree days 32 29  
Since 1 July heating degree days 356 394  
Cooling Degree Days 0 0  
Month to date cooling degree days 0 0  
Year to date cooling degree days 1322 1247  
Moisture  
Dew Point 37 °F    
Average Humidity 70    
Maximum Humidity 89    
Minimum Humidity 50    
Precipitation  
Precipitation 0.00 in 0.10 in 1.51 in (1946)
Month to date precipitation T 0.20  
Year to date precipitation 38.34 37.13  
Snow  
Snow 0.00 in 0.00 in T in (2002)
Month to date snowfall 0.0 0.0  
Since 1 July snowfall 0.0 0.0  
Since 1 September snowfall 0.0 0.0  
Snow Depth 0.00 in    
Sea Level Pressure  
Sea Level Pressure 30.08 in    
Wind  
Wind Speed 10 mph (WNW)    
Max Wind Speed 18 mph    
Max Gust Speed 24 mph    
Visibility 10 miles    
Events      
T = Trace of Precipitation, MM = Missing Value Source: NWS Daily Summary

Daily Weather History Graph

Daily Weather History Graph

Search for Another Location

Airport or City:

Trip Planner

Search our weather history database for the weather conditions in past years. The results will help you decide how hot, cold, wet, or windy it might be!

Date:

Astronomy

Nov. 02, 2013 Rise Set
Actual Time 7:37 AM CDT 6:07 PM CDT
Civil Twilight 7:09 AM CDT 6:34 PM CDT
Nautical Twilight 6:38 AM CDT 7:06 PM CDT
Astronomical Twilight 6:07 AM CDT 7:37 PM CDT
Moon 6:35 AM CDT (11/2) 5:38 PM CDT (11/2)
Length of Visible Light 11h 25m
Length of Day
10h 29m
Waning Crescent, 1% of the Moon is Illuminated
Nov 2
Waning Crescent
Nov 3
New
Nov 9
First Quarter
Nov 17
Full
Nov 25
Last Quarter

Hourly Weather History & Observations

Time (CDT) Temp. Windchill Dew Point Humidity Pressure Visibility Wind Dir Wind Speed Gust Speed Precip Events Conditions
12:54 AM 48.0 °F - 39.0 °F 71% 29.90 in 10.0 mi WNW 10.4 mph - N/A   Mostly Cloudy
1:54 AM 46.9 °F - 39.9 °F 77% 29.91 in 10.0 mi WNW 12.7 mph - N/A   Partly Cloudy
2:54 AM 45.0 °F 40.1 °F 39.0 °F 80% 29.92 in 10.0 mi WNW 9.2 mph - N/A   Clear
3:54 AM 44.1 °F 38.6 °F 39.0 °F 82% 29.93 in 10.0 mi WNW 10.4 mph - N/A   Clear
4:54 AM 43.0 °F 36.8 °F 37.9 °F 82% 29.95 in 10.0 mi NW 11.5 mph - N/A   Clear
5:54 AM 42.1 °F 35.7 °F 37.9 °F 85% 29.98 in 10.0 mi West 11.5 mph - N/A   Scattered Clouds
6:04 AM 42.1 °F 36.1 °F 39.0 °F 89% 29.98 in 10.0 mi West 10.4 mph - N/A   Mostly Cloudy
6:12 AM 43.0 °F 38.2 °F 39.0 °F 86% 29.99 in 10.0 mi West 8.1 mph - N/A   Overcast
6:54 AM 43.0 °F 36.8 °F 39.0 °F 86% 30.02 in 10.0 mi West 11.5 mph - N/A   Overcast
7:30 AM 43.0 °F 36.8 °F 39.0 °F 86% 30.02 in 10.0 mi WNW 11.5 mph - N/A   Overcast
7:40 AM 43.0 °F 36.8 °F 39.0 °F 86% 30.03 in 10.0 mi WNW 11.5 mph - N/A   Overcast
7:54 AM 43.0 °F 36.8 °F 39.0 °F 86% 30.04 in 10.0 mi WNW 11.5 mph - N/A   Overcast
8:18 AM 43.0 °F 36.8 °F 39.0 °F 86% 30.05 in 10.0 mi WNW 11.5 mph - N/A   Overcast
8:54 AM 44.1 °F 38.1 °F 39.9 °F 85% 30.08 in 10.0 mi WNW 11.5 mph - N/A   Overcast
9:23 AM 46.0 °F 39.9 °F 39.9 °F 79% 30.08 in 10.0 mi NW 13.8 mph - N/A   Mostly Cloudy
9:35 AM 46.9 °F - 39.9 °F 77% 30.09 in 10.0 mi NW 12.7 mph - N/A   Scattered Clouds
9:54 AM 48.0 °F - 39.9 °F 74% 30.10 in 10.0 mi NW 15.0 mph 23.0 mph N/A   Scattered Clouds
10:12 AM 46.9 °F - 39.9 °F 77% 30.10 in 10.0 mi NNW 17.3 mph 24.2 mph N/A   Mostly Cloudy
10:54 AM 48.9 °F - 39.0 °F 69% 30.12 in 10.0 mi NW 17.3 mph - N/A   Overcast
11:16 AM 51.1 °F - 39.0 °F 63% 30.12 in 10.0 mi NNW 13.8 mph - N/A   Scattered Clouds
11:54 AM 52.0 °F - 36.0 °F 54% 30.12 in 10.0 mi North 15.0 mph - N/A   Scattered Clouds
12:54 PM 52.0 °F - 37.0 °F 57% 30.13 in 10.0 mi WNW 9.2 mph - N/A   Overcast
1:54 PM 51.1 °F - 36.0 °F 56% 30.14 in 10.0 mi NW 12.7 mph 21.9 mph N/A   Overcast
2:54 PM 52.0 °F - 36.0 °F 54% 30.14 in 10.0 mi NW 11.5 mph - N/A   Overcast
3:54 PM 52.0 °F - 36.0 °F 54% 30.15 in 10.0 mi West 12.7 mph - N/A   Overcast
4:54 PM 51.1 °F - 36.0 °F 56% 30.15 in 10.0 mi NW 10.4 mph - N/A   Clear
5:54 PM 51.1 °F - 34.0 °F 52% 30.16 in 10.0 mi NW 12.7 mph - N/A   Mostly Cloudy
6:54 PM 46.9 °F - 33.1 °F 59% 30.17 in 10.0 mi WNW 4.6 mph - N/A   Clear
7:54 PM 46.0 °F 44.8 °F 34.0 °F 63% 30.20 in 10.0 mi West 3.5 mph - N/A   Clear
8:54 PM 44.1 °F 41.5 °F 34.0 °F 68% 30.20 in 10.0 mi West 4.6 mph - N/A   Clear
9:54 PM 41.0 °F 38.0 °F 34.0 °F 76% 30.20 in 10.0 mi SW 4.6 mph - N/A   Clear
10:54 PM 43.0 °F - 34.0 °F 71% 30.20 in 10.0 mi Calm Calm - N/A   Clear
11:54 PM 43.0 °F 41.3 °F 34.0 °F 71% 30.21 in 10.0 mi WSW 3.5 mph - N/A   Clear